User: anonymous   Login
Location: Cranbrook Institute of Science
(42.5830°N, 83.2450°W)
Time: 07:20:58
(UTC-05:00)
Language:

CZ-4B R/B - Orbit

View from above orbital plane
View from above orbital plane
View from above satellite
View from above satellite

Ground track
Ground track

The orbit data is extracted from the following two-line orbital elements,

1 29093U 06015B   17056.46499716  .00004693  00000-0  11536-3 0  9991
2 29093  97.4872 164.8356 0065409   0.7588 359.3744 15.38948835600349
Epoch (UTC): 25 February 2017 11:09:35
Eccentricity: 0.0065409
inclination: 97.4872°
perigee height: 404 km
apogee height: 494 km
right ascension of ascending node: 164.8356°
argument of perigee: 0.7588°
revolutions per day: 15.38948835
mean anomaly at epoch: 359.3744°
orbit number at epoch: 60034

The dashed part of the orbit path shows where the satellite is in the earth's shadow,  

DLR